Regional Weather Roundup
Issued by NWS Burlington, VT

Current Version | Previous Version | Text Only | Print | Product List | Glossary On
Versions: 1 2 3 4 5 6 7 8 9 10 11 12 13 14 15 16 17 18 19 20 21 22 23 24 25 26 27 28 29 30 31 32 33 34 35 36 37 38 39 40 41 42 43 44 45 46 47 48 49 50
000
ASUS41 KBTV 181910
RWRBTV
VERMONT REGIONAL WEATHER ROUNDUP
NATIONAL WEATHER SERVICE BURLINGTON VT
200 PM EST WED JAN 18 2017

NOTE: "FAIR" INDICATES FEW OR NO CLOUDS BELOW 12,000 FEET WITH NO
SIGNIFICANT WEATHER AND/OR OBSTRUCTIONS TO VISIBILITY.

* THESE REPORTS ARE NOT UNDER NWS QUALITY CONTROL AND/OR DO NOT
  REPORT WEATHER SUCH AS PRECIPITATION AND FOG.

VTZ001>019-182000-
_____VERMONT_____


CITY           SKY/WX    TMP DP  RH WIND       PRES   REMARKS
BURLINGTON     CLOUDY    37  31  78 S10       29.93R WCI  30
MONTPELIER     CLOUDY    33  29  85 S9        29.97F WCI  25
MORRISVILLE    CLOUDY    33  28  81 S7        29.96S WCI  27
ST. JOHNSBURY*   N/A     33  30  88 MISG      29.96F
LYNDONVILLE*   LGT SNOW  30  29  94 E6        29.96S WCI  24
MIDDLEBURY*    LGT RAIN  35  30  84 S7        29.94R WCI  29
RUTLAND*       CLOUDY    35  28  75 SE9       29.94S WCI  28
SPRINGFIELD    LGT SNOW  32  29  88 CALM      29.99S FOG
HIGHGATE*      CLOUDY    37  31  78 S10       29.91S WCI  30
NEWPORT*       CLOUDY    32  28  84 SE12      29.94S WCI  23
BENNINGTON     CLOUDY    36  32  85 SW3       29.93S

_____LAKE CHAMPLAIN_____


CITY           SKY/WX    TMP DP  RH WIND       PRES   REMARKS

$$

NYZ007-026>031-035-052-083-087-182000-
_____NORTHERN NEW YORK_____


CITY           SKY/WX    TMP DP  RH WIND       PRES   REMARKS
PLATTSBURGH    CLOUDY    37  32  82 S12       29.90  WCI  29
SARANAC LAKE   CLOUDY    34  31  88 SW9       29.83S WCI  27
MASSENA        CLOUDY    32  31  96 CALM      29.91R FOG
OGDENSBURG*    CLOUDY    31  31  99 W5        29.91  FOG     WCI  27
WATERTOWN      CLOUDY    34  34 100 W8        29.93R FOG     WCI  27
FT DRUM        CLOUDY    34  32  92 W6        29.90R WCI  28
ALBANY         DRZL/FOG  36  34  92 CALM      29.97S VSB 1
GLENS FALLS    CLOUDY    36  33  89 SE5       29.95S FOG

$$
NHZ002-005-011-182000-
_____NEW HAMPSHIRE_____


CITY           SKY/WX    TMP DP  RH WIND       PRES   REMARKS
LEBANON        LGT SNOW  34  30  85 CALM      29.98R FOG
KEENE          CLOUDY    34  30  85 N7        29.99R WCI  28
MT WASHINGTON  SNOW      14  14 100 SE16        N/A  VSB 1/8 WCI  -2
PLYMOUTH       LGT SNOW  31  28  87 CALM      30.02R
WHITEFIELD     CLOUDY    31  24  75 E14       29.95F WCI  21

$$

_____REGIONAL QUEBEC LOCATIONS_____


CITY           SKY/WX    TMP DP  RH WIND       PRES   REMARKS
MONTREAL       FRZ DRZL  27  25  93 N8        29.91S FOG     WCI  18
QUEBEC CITY    CLOUDY    21  12  68 NE10G20   30.01F WCI  10
SHERBROOKE     FLURRIES  30  25  80 SE10      29.94S WCI  21

_____REGIONAL ONTARIO LOCATIONS_____


CITY           SKY/WX    TMP DP  RH WIND       PRES   REMARKS
OTTAWA         FOG       28  27  93 SW2       29.91R VSB 1

______KEY______
VSB  - VISIBILITY IN MILES
WCI  - WIND CHILL INDEX
HX   - HEAT INDEX
$$
NNNN




USA.gov is the U.S. government's official web portal to all federal, state and local government web resources and services.